Regional Weather Roundup
Issued by NWS

Home | Current Version | Previous Version | Text Only | Print | Product List | Glossary On
Versions: 1 2 3 4 5 6 7 8 9 10 11 12 13 14 15 16 17 18 19 20 21 22 23 24 25 26 27 28 29 30 31 32 33 34 35 36 37 38 39 40 41 42 43 44 45 46
000
ASUS45 KPSR 240610
RWRAZ

ARIZONA HOURLY REGIONAL WEATHER ROUNDUP
NATIONAL WEATHER SERVICE PHOENIX AZ
1100 PM MST TUE MAY 23 2017

NOTE: FAIR INDICATES FEW OR NO CLOUDS BELOW 12,000 FEET WITH NO
SIGNIFICANT WEATHER AND/OR OBSTRUCTIONS TO VISIBILITY.

AZZ001>003-036-240700-
NORTHWEST ARIZONA

CITY           SKY/WX    TMP DP  RH WIND       PRES   REMARKS
BULLHEAD CITY  CLEAR     90  28  11 CALM      29.73F
KINGMAN        CLEAR     66  23  19 MISG      29.96F
6HR MIN TEMP:  66; 6HR MAX TEMP:  95;

$$

AZZ004>008-015-016-018-240700-
NORTH CENTRAL ARIZONA

CITY           SKY/WX    TMP DP  RH WIND       PRES   REMARKS
GRAND CANYON   CLEAR     43  27  53 E3        30.20F
6HR MIN TEMP:  43; 6HR MAX TEMP:  77;

WILLIAMS       CLEAR     48  27  43 S7        30.21F
PRESCOTT       CLEAR     62  28  27 S10       30.09S
6HR MIN TEMP:  61; 6HR MAX TEMP:  87;

FLAGSTAFF      CLEAR     45  27  49 N3        30.22F
6HR MIN TEMP:  45; 6HR MAX TEMP:  74;

PAYSON         CLEAR     70  23  17 CALM      30.13S
PAGE           CLEAR     69  35  28 S5        30.00F
6HR MIN TEMP:  68; 6HR MAX TEMP:  84;

$$

AZZ009>014-017-240700-
NORTHEAST ARIZONA

CITY           SKY/WX    TMP DP  RH WIND       PRES   REMARKS
WINSLOW        CLEAR     55  23  28 SW6       30.09F
6HR MIN TEMP:  55; 6HR MAX TEMP:  84;

SAINT JOHNS    CLEAR     55  27  34 CALM      30.14S
6HR MIN TEMP:  55; 6HR MAX TEMP:  81;

WINDOW ROCK    CLEAR     53  25  33 NE8       30.19F
6HR MIN TEMP:  50; 6HR MAX TEMP:  73;

SHOW LOW       CLEAR     54  21  28 SE6       30.19F
$$

AZZ540-542>544-546-548-240700-
GREATER PHOENIX AREA

CITY           SKY/WX    TMP DP  RH WIND       PRES   REMARKS
PHOENIX        PTCLDY    90  27  10 CALM      29.75S
6HR MIN TEMP:  90; 6HR MAX TEMP: 103;

BUCKEYE        CLEAR     82  23  11 N9        29.76S
LUKE AFB       CLEAR     82  30  15 E5        29.75R
                                      6HR PCP: TRACE;

DEER VALLEY    CLEAR     80  22  11 CALM      29.78S
6HR MIN TEMP:  79; 6HR MAX TEMP: 103;

SCOTTSDALE     CLEAR     86  30  13 CALM      29.80S
6HR MIN TEMP:  86; 6HR MAX TEMP: 103;

MESA-GATEWAY   CLEAR     81  23  12 E8        29.79S
$$

AZZ539-553-240700-
SOUTHWEST MARICOPA COUNTY AND PINAL COUNTY

CITY           SKY/WX    TMP DP  RH WIND       PRES   REMARKS
CASA GRANDE    PTCLDY    82  18   9 W5        29.80S
6HR MIN TEMP:  82; 6HR MAX TEMP: 102;

GILA BEND      FAIR      88  22   9 SW12      29.75S
6HR MIN TEMP:  85; 6HR MAX TEMP: 106;

$$

AZZ503-504-507>509-240700-
SOUTHEAST ARIZONA

CITY           SKY/WX    TMP DP  RH WIND       PRES   REMARKS
TUCSON         CLEAR     80  21  11 SW5       29.92R
6HR MIN TEMP:  79; 6HR MAX TEMP:  99;

DAVIS-MONTHAN  CLEAR     78  23  13 SW5       29.91R
6HR MIN TEMP:  77; 6HR MAX TEMP:  98;

NOGALES        CLEAR     70  20  15 CALM      30.02R
6HR MIN TEMP:  70; 6HR MAX TEMP:  95;

SIERRA VISTA   CLEAR     73  18  12 W12       30.07S
6HR MIN TEMP:  73; 6HR MAX TEMP:  91;

DOUGLAS        CLEAR     72  17  12 N9        30.01R
6HR MIN TEMP:  63; 6HR MAX TEMP:  93;

SAFFORD        CLEAR     72  18  13 NW7       29.92R
6HR MIN TEMP:  72; 6HR MAX TEMP:  97;

$$

AZZ532-240700-
SOUTHWEST ARIZONA

CITY           SKY/WX    TMP DP  RH WIND       PRES   REMARKS
YUMA           CLEAR     88  41  19 W7        29.75S
6HR MIN TEMP:  87; 6HR MAX TEMP: 108;

$$

CAZ041-043-047-048-061-525>527-560>570-240700-
SOUTHERN CALIFORNIA

CITY           SKY/WX    TMP DP  RH WIND       PRES   REMARKS
DOWNTOWN L.A.  CLEAR     60  56  86 W3        29.92S
6HR MIN TEMP:  60; 6HR MAX TEMP:  76;

L.A. AIRPORT   PTCLDY    59  56  89 SW6       29.92F
6HR MIN TEMP:  58; 6HR MAX TEMP:  66;

SAN DIEGO      MOCLDY    63  59  87 NW7       29.95R
6HR MIN TEMP:  63; 6HR MAX TEMP:  72;

BURBANK        CLEAR     63  55  75 E6        29.91S
6HR MIN TEMP:  63; 6HR MAX TEMP:  90;

ONTARIO        CLEAR     70  53  54 W8        29.92R
6HR MIN TEMP:  69; 6HR MAX TEMP:  89;

RIVERSIDE      CLEAR     69  54  58 SW8       29.92R
6HR MIN TEMP:  69; 6HR MAX TEMP:  88;

PALM SPRINGS   CLEAR     93  38  14 CALM      29.77R
6HR MIN TEMP:  92; 6HR MAX TEMP: 109;

EL CENTRO NAS  PTCLDY    86  33  15 W10       29.74S
6HR MIN TEMP:  86; 6HR MAX TEMP: 109; 6HR PCP: TRACE;

IMPERIAL       CLEAR     85  43  22 W10       29.72S
6HR MIN TEMP:  84; 6HR MAX TEMP: 109;

BLYTHE         CLEAR     94  30  10 W13       29.73S
6HR MIN TEMP:  92; 6HR MAX TEMP: 108;

NEEDLES        CLEAR     95  21   7 W13       29.74F
6HR MIN TEMP:  95; 6HR MAX TEMP: 109;

$$

NVZ020-UTZ003-240700-
SOUTHERN NEVADA-UTAH

CITY           SKY/WX    TMP DP  RH WIND       PRES   REMARKS
LAS VEGAS      CLEAR     88  22   9 SW3       29.82F
6HR MIN TEMP:  87; 6HR MAX TEMP: 101;

SALT LAKE CITY CLEAR     67  39  35 SE8       29.97F
6HR MIN TEMP:  66; 6HR MAX TEMP:  82;

$$

NMZ009-TXZ055-240700-
NEW MEXICO-WEST TEXAS

CITY           SKY/WX    TMP DP  RH WIND       PRES   REMARKS
ALBUQUERQUE    CLEAR     67  22  18 N7        30.07F
6HR MIN TEMP:  67; 6HR MAX TEMP:  78;

EL PASO        CLEAR     66  37  34 E13       30.03R
6HR MIN TEMP:  66; 6HR MAX TEMP:  84;

$$


........................KEY........................
SKY/WX - SKY CONDITION/WEATHER
TMP    - TEMPERATURE IN FAHRENHEIT
DP     - DEW POINT IN FAHRENHEIT
RH     - RELATIVE HUMIDITY IN PERCENT
WIND   - DIRECTION AND SPEED IN MILES PER HOUR (MPH)
VRB    - VARIABLE WIND DIRECTION
PRES   - MEAN SEA LEVEL PRESSURE IN INCHES OF MERCURY
         F - FALLING PRESSURE   R - RISING PRESSURE
         S - STEADY PRESSURE
VSB    - VISIBILITY IN MILES
HX     - HEAT INDEX IN FAHRENHEIT
WCI    - WIND CHILL INDEX IN FAHRENHEIT
TC     - TEMPERATURE IN CELSIUS WHICH IS ALSO KNOWN AS
         TEMPERATURE IN CENTIGRADE
AFB    - AIR FORCE BASE
         LUKE AFB IS LUKE AIR FORCE BASE
         DAVIS-MONTHAN IS DAVIS-MONTHAN AIR FORCE BASE
NAS    - NAVAL AIR STATION
         EL CENTRO NAS IS EL CENTRO NAVAL AIR STATION
N/A    - NOT AVAILABLE





USA.gov is the U.S. government's official web portal to all federal, state and local government web resources and services.